Aérodrome :
LOGIN :

S'inscrire | Disclaimer

   EN    FR    IT 

 










Légende :    VFR   VFR Marginal   IFR   IFR Intensif   IFR Très Intensif
Visi : 
Plafond : 
>= 8 km
>= 3000ft
5 à 8 km
1000 à 3000 ft
1500m à 5 km
500 à 1000 ft
800 à 1500m
200 à 500 ft
< 800m
< 200 ft
Symboles :   Orages  Brouillard  Fortes neiges  Fortes précipitations  Vent > 20 kt
SIGMETs :   Divers  Orages  Givrage  Turbulence  Onde Orograph.  Cendres Volcan.







- Altitude de l'aérodrome : 330 ft
- Code IATA : LVA
- Voir les cartes d'approche


LFOV - Laval-Entrammes

DERNIER METAR :
  • 152200Z AUTO 14007KT CAVOK 17/11 Q1013

METARs EXPIRÉS :
  • 152130Z AUTO 13007KT 9999 BKN047 OVC060 17/11 Q1012
  • 152100Z AUTO 11006KT 9999 SCT048 OVC060 17/12 Q1012
  • 152030Z AUTO 09004KT 9999 SCT046 OVC058 17/13 Q1012
  • 152000Z AUTO 02004KT 350V060 9999 BKN048 OVC062 16/14 Q1012
  • 151930Z AUTO 04002KT CAVOK 16/14 Q1011

TAF N/A
Pas de NOTAMs connus pour ce terrain.



MET'MAP, la Météo Aéronautique d'un coup d'oeil ! - Copyright ORBIFLY Décembre 2007 - Disclaimer

ORBIFLY MET'MAP TEAM :

Programmation & Développement : Alexandra Zaïnal
Conception & Développement : Baudouin d'Aumeries
Co-Programmation & Développement : Marc-Olivier Méhu
Soutien technique & logistique : Manuel Goepfert

Contact : metmap@orbifly.com




SOURCES & CREDITS :

   NOAA